AQI (42)

Current Conditions for Foresthill, CA. Sunny, Dry   
Visibility: 10 miles
Space WX Alerts: WATCH:  Geomagnetic Storm Category G2 Predicted ( Latest Alert ) - Issue Time: 2019 Mar 21 0851 UTC

  Summary / Temperature 

Current Temperature
38.2°F
3.4°C
(24/hr Ago)
40.3°F
(Apparent temp)
34.2°F
Cool
Wind Chill Graphs
38.2°F 
Wind Chill-Avg
36.6°F 2.6°C
 --- Virtual Temp: 39.7°F ---

 Temp Rate:

 24/hr Difference:

 Avg Running Temp:

 Todays High:

 Todays Low:

 Y-days High:

 Y-days Low:

 Todays WChill:

 Y-days WChill:

 Evapotranspiration:

+0.2°F/hr 

-2.1°F

37.6°F

40.5°F 12:00am

37.2°F 6:27am

49.8°F 1:49pm

40.0°F 5:54am

28.6°F 6:59am

34.1°F 10:58pm

0.000 in

115' Above Ground

 Temperature:

 6'AGL VRS 115'AGL:

 Avg Running Temp:

 Humidity:

 Todays High:

 Todays Low:

 Y-days High:

 Y-days Low:

40.0°F 

+1.8°F

39.4°F

82% 

43.0°F 12:00am

39.0°F 3:21am

52.0°F 1:28pm

41.0°F 12:52am

Temp & Humidity Graphs

  Wind 

Wind Speed

 7.0 mph

Gusting to

 16.0 mph

Wind from ESE

105°  ESE

Light breeze

 Avg speed:

 Wind Run:

 Peak Gust:

  2.0 mph 

10.0 miles

  16.0 mph 7:52am

  Almanac  

Moon age: 16 days,12 hours,29 minutes,96%

Waning Gibbous
96%
Illuminated
16 days in cycle

 Moonrise:

 Moonset:

 Sunrise:

 Sunset:

 Solar Noon:

9:30pm

8:22am

7:01am

7:14pm

1:10pm

2min 38s more daylight tomorrow 

  Solar Radiation 

(Current Solar)
  76 W/m2 (48%)
(Todays High)
 83 W/m2@7:53am
Feels like: 38.1°F in the sun

Rain

 Rain Today:

 Rain Rate (/hr):

 Rain last hour:

 Rain Yesterday:

 This Month:

 Season Total:

2 Days Since Last Dry Day

0.00 in

0.000 in

0.00 in

0.02 in

4.40 in

42.25 in

Updated Time

Updated: 3/22/19  7:58am

(Updated  sec ago)

Humidity & Barometer

 Humidity:

 Wetbulb:

 Dew Point:

 Barometer:

93% 

37.4°F 

36.4°F 

30.217 inHg 

 Baro Trend:  Steady 
Northern Calif
Preparedness
Fire 
Level 

    UV Index  

(Current UV)
0.0  None
(Todays High) @ 12:00am
0.0   None

National Weather Service Forecast

Today

Today: Rain
Rain
Tonight

Tonight: Rain
Rain
Saturday

Saturday: Rain Showers Likely
Rain Showers Likely
Saturday
Night
Saturday Night: Partly Cloudy
Partly Cloudy
Sunday

Sunday: Mostly Sunny
Mostly Sunny
Sunday
Night
Sunday Night: Chance Rain
Chance Rain
Hi 47 °F Lo 39 °F Hi 48 °F ↓ Lo 33 °F Hi 55 °F Lo 40 °F

Foresthill Probe 2 Stats  
Foresthill Probe 2: is located on Thomas Street
at 3000 feet. The main Foresthill Weather site
is located on Melody ln at the 2860 foot elevation

Calm
36.9°F
2.7°C
Temp Rate:
+0.2°F
Calm
Gusting to
2.0 mph
(Humidity)
97%
Wind from ESE
117°  ESE
Updated: 22/03/19 - 07:53:46
 Todays High: 39.3°F 00:00
 Todays Low: 36.0°F 06:34
 Rain Today: 0.00 in
 Season Total: 45.60 in

Foresthill Wx: Monthly,Yearly, Highs and Lows 

Foresthill  
This Weather Data is coming from the main Foresthill
Weather site located on Melody ln at the 2860 foot
elevation
Not Foresthill Probe 2
Weather Data
Month
  High
Month
  Low
Year
High
Year
Low
Temp 69.9°F
3/18/19
31.9°F
3/13/19
69.9°F
3/18/19
24.5°F
2/18/19
Humidity 100%
3/4/19
21%
3/13/19
100%
1/9/19
21%
1/1/19
Heat Index 68.8°F
3/18/19
33.6°F
3/13/19
68.8°F
3/18/19
30.1°F
2/22/19
Wind Chill 69.9°F
3/18/19
21.2°F
3/9/19
69.9°F
3/18/19
11.5°F
2/11/19
Wind Gust 37 mph
3/6/19
0 mph
3/1/19
48 mph
2/27/19
0 mph
1/1/19
Barometer 30.34 in
3/14/19
29.66 in
3/6/19
30.54 in
1/23/19
29.37 in
2/14/19
ET 0.16 in
3/18/19
0.00 in
3/1/19
0.16 in
3/18/19
0.00 in
1/1/19
Dew Point 49.2°F
3/19/19
13.7°F
3/13/19
53.2°F
1/19/19
7.7°F
1/1/19
Pacific Satellite US Radar Satellite Imagery Sacramento,CA.  (click to enlarge)
NWS Weather Forecast - Summary
Updated: Friday, March 22, 2019 - 4:51am PDT
Current Interstate Highway Conditions for I-80 & US-50

[I 80: IN THE SAN FRANCISCO BAY AREA - SOLANO CO]
no traffic restrictions are reported for this area.

[I 80: IN THE NORTHERN CALIFORNIA AREA & SIERRA NEVADA]
no traffic restrictions are reported for this area.

[US 50: IN THE SACRAMENTO VALLEY & THE LAKE TAHOE BASIN]
  1-way controlled traffic at various locations from 1. 6 mi east of camino heights to 1 mi west of riverton /at bridal veil falls rd/ (EL DORADO CO) from 7:00am to 5:30pm monday thru friday thru 3/22/19 - due to construction
NWS Weather Forecast: Today and Tonight (Updated: Fri, 22-Mar-2019 2:33am PDT)
Today

Today: Rain
Rain

Hi 47 °F
NWS forecast: Rain after 11am. Mostly cloudy, with a high near 47. Southeast wind around 8 mph. Chance of precipitation is 90%. New rainfall amounts between a quarter and half of an inch possible.
Tonight

Tonight: Rain
Rain

Lo 39 °F
NWS forecast: Rain before 5am, then rain showers likely. Cloudy, with a low around 39. South southeast wind 3 to 7 mph. Chance of precipitation is 90%. New rainfall amounts between three quarters and one inch possible.
YR.NO 10 Day Weather forecast
Last update: 03/22/2019 @ 00:35
Next update: 03/22/2019 @ 13:00
Provided by: 22
      Temperature Precipitation Pressure Wind  
Today
03/22/2019
05:00 06:00 34°F   30.15 inHg Light breeze from east 5 mph
  06:00 12:00 34°F   30.16 inHg Light breeze from east 6 mph
  12:00 18:00 48°F 0.03 in 30.20 inHg Light breeze from south-southwest 5 mph
  18:00 00:00 45°F 0.06 in 30.19 inHg Light air from east-northeast 1 mph
    (Click to enlarge)
meteogram

    Forecast for next 9 days

      Temperature Precip Pressure Wind  
Saturday
03/23/2019
00:00 06:00 39°F 0.41 in 30.19 inHg Light breeze from east 4 mph
  06:00 12:00 37°F 0.04 in 30.21 inHg Light air from east-northeast 3 mph
  12:00 18:00 46°F   30.20 inHg Light breeze from southwest 4 mph
  18:00 00:00 45°F   30.19 inHg Light air from west-northwest 3 mph
      Temperature Precip Pressure Wind  
Sunday
03/24/2019
00:00 06:00 30°F   30.25 inHg Light breeze from east-northeast 6 mph
  06:00 12:00 27°F   30.23 inHg Light breeze from east-northeast 7 mph
  12:00 18:00 54°F   30.21 inHg Light breeze from west-southwest 4 mph
  17:00 23:00 54°F   30.13 inHg Light air from west-southwest 3 mph
  23:00 05:00 39°F   30.17 inHg Light breeze from east 6 mph
      Temperature Precip Pressure Wind  
Monday
03/25/2019
05:00 11:00 36°F   30.08 inHg Light breeze from east 7 mph
  11:00 17:00 54°F 0.18 in 30.06 inHg Gentle breeze from south-southwest 11 mph
  17:00 23:00 41°F 0.61 in 30.15 inHg Light breeze from west-southwest 6 mph
  23:00 05:00 37°F 0.09 in 30.13 inHg Light breeze from east-northeast 5 mph
      Temperature Precip Pressure Wind  
Tuesday
03/26/2019
05:00 11:00 39°F 0.04 in 30.04 inHg Light air from east 2 mph
  11:00 17:00 45°F 0.43 in 30.00 inHg Light breeze from south-southwest 4 mph
  17:00 23:00 41°F 0.13 in 29.93 inHg Light breeze from west 5 mph
  23:00 05:00 34°F 0.02 in 29.94 inHg Light breeze from east-southeast 6 mph
      Temperature Precip Pressure Wind  
Wednesday
03/27/2019
05:00 11:00 36°F 0.43 in 29.80 inHg Gentle breeze from southeast 10 mph
  11:00 17:00 37°F 0.31 in 29.91 inHg Moderate breeze from south 13 mph
  17:00 23:00 37°F 0.26 in 29.93 inHg Gentle breeze from south 9 mph
  23:00 05:00 34°F 0.35 in 30.01 inHg Light breeze from south-southeast 7 mph
      Temperature Precip Pressure Wind  
Thursday
03/28/2019
05:00 11:00 32°F 0.18 in 30.01 inHg Light breeze from southeast 7 mph
  11:00 17:00 37°F   30.14 inHg Light breeze from south-southeast 5 mph
  17:00 23:00 41°F   30.15 inHg Light air from southwest 3 mph
  23:00 05:00 30°F   30.23 inHg Light breeze from east-northeast 5 mph
      Temperature Precip Pressure Wind  
Friday
03/29/2019
05:00 11:00 25°F   30.23 inHg Light breeze from east-northeast 5 mph
  11:00 17:00 46°F 0.02 in 30.23 inHg Light air from southwest 2 mph
  17:00 23:00 46°F   30.20 inHg Light breeze from west-southwest 4 mph
  23:00 05:00 28°F   30.21 inHg Light breeze from east-northeast 4 mph
      Temperature Precip Pressure Wind  
Saturday
03/30/2019
05:00 11:00 30°F   30.18 inHg Light breeze from east-northeast 4 mph
  11:00 17:00 45°F   30.21 inHg Light air from south-southeast 2 mph
  17:00 23:00 45°F   30.17 inHg Light air from west 1 mph
  23:00 05:00 36°F   30.15 inHg Light breeze from east-northeast 4 mph
      Temperature Precip Pressure Wind  
Sunday
03/31/2019
05:00 11:00 37°F   30.10 inHg Light breeze from east-northeast 5 mph
  11:00 17:00 48°F   30.12 inHg Light air from south-southwest 2 mph

NOAA Local Storm Report
2 MILES SOUTHEAST OF FOLSOM   ( More )
DATE
03/20/2019
TIME
3:05 PM
COUNTY
SACRAMENTO
STATE
CA
GEOGRAPHIC
38.65N 121.12W
SOURCE
PUBLIC
HAIL ESTIMATED AT 0.25 INCH
pea size hail was reported in folsom.
How Close Are We To this Month's Temperature Record ?
Updated Friday, Mar 22, 2019- 7:50:00 AM

Current Temperature: 38.2°F

March's High: Temperature Record 77.2°F - Set on Fri, Mar 27, 2015 - 2:34:00 PM
We are currently 39°F Less than this Month's record High

March's Low: Temperature Record 28.6°F - Set on Wed, Mar 7, 2012 - 5:18:00 AM
We are currently 9.6°F More than this Month's record Low

Weather History For Friday, March 22, 2019


On this Day - In Weather History ...
Data courtesy of weatherforyou.com
powered by Cumulus v1.9.3 (1059)
Ambient Weather VWS v14.00
Top Contact Website Map Copyright © 2007 - 2019 Foresthillweather.com Never base important decisions on this or any weather information obtained from the Internet